This is the latest recevied weather packets stored in our database for station/object DB0ADS-6. If no packets are shown the sender has not sent any weather packets the latest 10 day(s).
| Time | Temp. | Humidity | Pressure | Rain* | Wind** | Luminosity | Snow |
|---|---|---|---|---|---|---|---|
| 1778074236 | 16.67° C | 61% | 1003.6 hPa | 0 mm | - | - | - |
| 1778073974 | 16.67° C | 60% | 1003.6 hPa | 0 mm | - | - | - |
| 1778073673 | 17.22° C | 59% | 1003.5 hPa | 0 mm | - | - | - |
| 1778073391 | 17.22° C | 60% | 1003.5 hPa | 0 mm | - | - | - |
| 1778073069 | 17.22° C | 59% | 1003.5 hPa | 0 mm | - | - | - |
| 1778072767 | 17.22° C | 58% | 1003.5 hPa | 0 mm | - | - | - |
| 1778072466 | 17.78° C | 56% | 1003.5 hPa | 0 mm | - | - | - |
| 1778072164 | 17.78° C | 58% | 1003.5 hPa | 0 mm | - | - | - |
| 1778071883 | 17.22° C | 59% | 1003.6 hPa | 0 mm | - | - | - |
| 1778071561 | 16.67° C | 61% | 1003.6 hPa | 0 mm | - | - | - |
| 1778071259 | 16.67° C | 62% | 1003.6 hPa | 0 mm | - | - | - |
| 1778070957 | 16.67° C | 61% | 1003.7 hPa | 0 mm | - | - | - |
| 1778070656 | 17.22° C | 61% | 1003.8 hPa | 0 mm | - | - | - |
| 1778070374 | 17.22° C | 60% | 1003.7 hPa | 0 mm | - | - | - |
| 1778070076 | 16.67° C | 62% | 1003.8 hPa | 0 mm | - | - | - |
| 1778069752 | 17.22° C | 59% | 1003.8 hPa | 0 mm | - | - | - |
| 1778069452 | 17.22° C | 59% | 1003.8 hPa | 0 mm | - | - | - |
| 1778069154 | 17.22° C | 59% | 1003.8 hPa | 0 mm | - | - | - |
| 1778068845 | 16.67° C | 63% | 1003.8 hPa | 0 mm | - | - | - |
| 1778068543 | 16.67° C | 61% | 1004 hPa | 0 mm | - | - | - |
| 1778068245 | 16.67° C | 63% | 1003.9 hPa | 0 mm | - | - | - |
| 1778067941 | 16.67° C | 60% | 1003.9 hPa | 0 mm | - | - | - |
| 1778067638 | 17.22° C | 60% | 1003.9 hPa | 0 mm | - | - | - |
| 1778067337 | 17.22° C | 61% | 1004 hPa | 0 mm | - | - | - |
| 1778067035 | 16.67° C | 61% | 1003.9 hPa | 0 mm | - | - | - |
* Rain latest hour (hover to see other rain measurements)
** Current wind speed in m/s (hover to see current wind gust speed)